Regional Weather Roundup
Issued by NWS Northern Indiana

Home | Current Version | Previous Version | Graphics & Text | Print | Product List | Glossary On
Versions: 1 2 3 4 5 6 7 8 9 10 11 12 13 14 15 16 17 18 19 20 21 22 23 24 25 26 27 28 29 30 31 32 33 34 35 36 37 38 39 40 41 42 43 44 45 46 47 48 49 50
000
ASUS43 KIWX 230510
RWRIWX

KIWX WEATHER ROUNDUP
NATIONAL WEATHER SERVICE NORTHERN INDIANA
100 AM EDT TUE SEP 23 2014

NOTE: "FAIR" INDICATES FEW OR NO CLOUDS BELOW 12,000 FEET WITH NO
SIGNIFICANT WEATHER AND/OR OBSTRUCTIONS TO VISIBILITY.

* THESE STATIONS ARE NOT UNDER NWS QUALITY CONTROL. THEY ALSO MAY NOT
  REPORT WEATHER SUCH AS PRECIPITATION OR FOG.

INZ001>027-230600-
NORTHERN INDIANA

CITY           SKY/WX    TMP DP  RH WIND       PRES   REMARKS
GARY*          CLEAR     47  45  90 CALM      30.28S
VALPARAISO     CLEAR     46  42  86 CALM      30.29S
MICHIGAN CITY* CLEAR     45  45 100 CALM      30.29S
LAPORTE*       CLEAR     43  43 100 CALM      30.30R
KNOX*          CLEAR     44  42  93 CALM      30.28S
SOUTH BEND     CLEAR     47  43  86 CALM      30.29S
GOSHEN         CLEAR    N/A N/A N/A CALM      30.29R
MONTICELLO*    CLEAR     50  46  86 CALM      30.28S
LOGANSPORT*    CLEAR     45  41  87 CALM      30.29F
ROCHESTER*     CLEAR     48  46  93 CALM      30.29F
WARSAW*        CLEAR     45  43  93 CALM      30.29S FOG
ANGOLA*        CLEAR     46  45  93 CALM      30.29R
FORT WAYNE     CLEAR     49  45  86 CALM      30.29F
HUNTINGTON*    CLEAR     46  45  95 CALM      30.28S
PERU/GRISSOM   CLEAR     47  47 100 SE2       30.28F
MARION*        CLEAR     45  43  90 CALM      30.30S

$$
INZ028>050-230600-
CENTRAL INDIANA

CITY           SKY/WX    TMP DP  RH WIND       PRES   REMARKS
LAFAYETTE      CLEAR     49  45  86 CALM      30.29R
KOKOMO*        CLEAR     46  43  87 CALM      30.29F
MUNCIE*        CLEAR     45  42  89 CALM      30.29S FOG
INDIANAPOLIS   CLEAR     52  45  77 NE7       30.28R

$$
MIZ043>046-050>051-056>058-064>065-071>073-077>080-230600-
SOUTHWEST LOWER MICHIGAN

CITY           SKY/WX    TMP DP  RH WIND       PRES   REMARKS
BATTLE CREEK   CLEAR     48  44  86 SW3       30.28F
BENTON HARBOR  CLEAR     44  44 100 CALM      30.28R
COLDWATER*     CLEAR     45  44  97 MISG      30.28S
HILLSDALE*     CLEAR     42  42 100 CALM      30.28S
HOLLAND        CLEAR     49  45  86 CALM      30.27S
GRAND RAPIDS   CLEAR     48  45  89 CALM      30.26F
KALAMAZOO      CLEAR     46  43  89 CALM      30.28S
STURGIS*       CLEAR     45  43  93 CALM      30.28S
THREE RIVERS*  FAIR      45  44  95 CALM      30.29S FOG

$$
OHZ001>008-015>018-024>025-230600-
NORTHWEST OHIO

CITY           SKY/WX    TMP DP  RH WIND       PRES   REMARKS
WAUSEON*       FAIR      45  43  93 CALM      30.28S
DEFIANCE       CLEAR    N/A N/A N/A CALM      30.29R
FINDLAY        CLEAR     45  42  89 CALM      30.27S
TOLEDO EXPRESS CLEAR     47  44  90 CALM      30.28R
TOLEDO METCALF CLEAR     50  43  77 S3        30.29R
LIMA           CLEAR     47  43  86 CALM      30.28S

$$
AND FOR LAKE MICHIGAN COASTAL AND OPEN LAKE BUOY OBSERVATIONS

STATION/POSITION TEMP    WIND        PRES    VSBY  WAVE
                 AIR SEA DIR/SP/G                  HT/PER
                 (F)     (DEG/KT/KT) (MB)    (MI)  (FT/S)
CALUMET HARBOR    56     190/  5/  7 1024.0R
SAINT JOSEPH      53      CALM  /  4 1025.1F
SOUTH LAKE BUOY   61 62  210/ 14/ 16 1024.5S         2/ 3
4 MI NW BRIDGMAN  58 65  160/ 10/ 12   N/A           1/ 5
MICHIGAN CITY     57 63  160/ 10/ 12   N/A           1/ 2

$$
&&



USA.gov is the U.S. government's official web portal to all federal, state and local government web resources and services.